Time,TemperatureF,DewpointF,PressureIn,WindDirection,WindDirectionDegrees,WindSpeedMPH,WindSpeedGustMPH,Humidity,HourlyPrecipIn,Conditions,Clouds,dailyrainin,SoftwareType,DateUTC
2013-04-29 00:02:00,49.0,47.0,29.92,South,187,0.0,0.0,94,0.00,,,0.01,,2013-04-29 05:02:00,
2013-04-29 00:12:00,49.0,47.0,29.92,South,187,0.0,0.0,94,0.00,,,0.01,,2013-04-29 05:12:00,
2013-04-29 00:22:00,49.0,48.0,29.92,South,187,0.0,0.0,95,0.00,,,0.01,,2013-04-29 05:22:00,
2013-04-29 00:32:00,49.0,48.0,29.92,South,187,0.0,0.0,96,0.00,,,0.01,,2013-04-29 05:32:00,
2013-04-29 00:42:00,49.0,48.0,29.92,South,187,0.0,0.0,96,0.00,,,0.01,,2013-04-29 05:42:00,
2013-04-29 00:52:00,49.0,48.0,29.92,South,187,0.0,0.0,96,0.00,,,0.01,,2013-04-29 05:52:00,
2013-04-29 01:02:00,49.0,48.0,29.92,SSE,165,0.0,0.0,97,0.00,,,0.01,,2013-04-29 06:02:00,
2013-04-29 01:11:00,49.0,48.0,29.92,SSE,165,0.0,0.0,97,0.00,,,0.01,,2013-04-29 06:11:00,
2013-04-29 01:21:00,50.0,49.0,29.92,SSE,164,0.0,0.0,97,0.00,,,0.01,,2013-04-29 06:21:00,
2013-04-29 01:32:00,50.0,49.0,29.91,SSE,164,0.0,0.0,96,0.00,,,0.01,,2013-04-29 06:32:00,
2013-04-29 01:42:00,50.0,49.0,29.91,SSE,164,0.0,0.0,96,0.00,,,0.01,,2013-04-29 06:42:00,
2013-04-29 01:52:00,49.0,48.0,29.91,SSE,164,0.0,0.0,96,0.00,,,0.01,,2013-04-29 06:52:00,
2013-04-29 02:01:00,49.0,48.0,29.91,SSE,164,0.0,0.0,96,0.00,,,0.01,,2013-04-29 07:01:00,
2013-04-29 02:11:00,49.0,48.0,29.91,SSE,164,0.0,0.0,96,0.00,,,0.01,,2013-04-29 07:11:00,
2013-04-29 02:21:00,49.0,48.0,29.91,SSE,164,0.0,0.0,96,0.00,,,0.01,,2013-04-29 07:21:00,
2013-04-29 02:32:00,48.0,47.0,29.90,SSE,164,0.0,0.0,96,0.00,,,0.01,,2013-04-29 07:32:00,
2013-04-29 02:41:00,48.0,47.0,29.90,SSE,164,0.0,0.0,96,0.00,,,0.01,,2013-04-29 07:41:00,
2013-04-29 02:52:00,48.0,47.0,29.90,SSE,164,0.0,0.0,96,0.00,,,0.01,,2013-04-29 07:52:00,
2013-04-29 03:02:00,47.0,46.0,29.90,SSE,164,0.0,0.0,96,0.00,,,0.01,,2013-04-29 08:02:00,
2013-04-29 03:11:00,47.0,46.0,29.90,SSE,164,0.0,0.0,96,0.00,,,0.01,,2013-04-29 08:11:00,
2013-04-29 03:21:00,47.0,46.0,29.90,SSE,164,0.0,0.0,96,0.00,,,0.01,,2013-04-29 08:21:00,
2013-04-29 03:32:00,47.0,46.0,29.90,SSE,164,0.0,0.0,97,0.00,,,0.01,,2013-04-29 08:32:00,
2013-04-29 03:42:00,47.0,46.0,29.90,SSE,164,0.0,0.0,97,0.00,,,0.01,,2013-04-29 08:42:00,
2013-04-29 03:52:00,47.0,46.0,29.90,SSE,164,0.0,0.0,97,0.00,,,0.01,,2013-04-29 08:52:00,
2013-04-29 04:01:00,46.0,45.0,29.90,SSE,164,0.0,0.0,97,0.00,,,0.01,,2013-04-29 09:01:00,
2013-04-29 04:12:00,46.0,45.0,29.90,SSE,164,0.0,0.0,97,0.00,,,0.01,,2013-04-29 09:12:00,
2013-04-29 04:21:00,46.0,45.0,29.90,SSE,164,0.0,0.0,97,0.00,,,0.01,,2013-04-29 09:21:00,
2013-04-29 04:32:00,46.0,45.0,29.90,SSE,164,0.0,0.0,97,0.00,,,0.01,,2013-04-29 09:32:00,
2013-04-29 04:42:00,46.0,45.0,29.90,SSE,164,0.0,0.0,97,0.00,,,0.01,,2013-04-29 09:42:00,
2013-04-29 04:53:00,46.0,45.0,29.90,SSE,164,0.0,0.0,97,0.00,,,0.01,,2013-04-29 09:53:00,
2013-04-29 05:02:00,46.0,45.0,29.90,SSE,164,0.0,0.0,97,0.00,,,0.01,,2013-04-29 10:02:00,
2013-04-29 05:12:00,46.0,45.0,29.90,SSE,164,0.0,0.0,97,0.00,,,0.01,,2013-04-29 10:12:00,
2013-04-29 05:23:00,46.0,45.0,29.91,SSE,164,0.0,0.0,97,0.00,,,0.01,,2013-04-29 10:23:00,
2013-04-29 05:32:00,46.0,45.0,29.91,SSE,164,0.0,0.0,97,0.00,,,0.01,,2013-04-29 10:32:00,
2013-04-29 05:42:00,46.0,45.0,29.91,SSE,164,0.0,0.0,97,0.00,,,0.01,,2013-04-29 10:42:00,
2013-04-29 05:52:00,46.0,45.0,29.91,SSE,164,0.0,0.0,97,0.00,,,0.01,,2013-04-29 10:52:00,
2013-04-29 06:02:00,46.0,45.0,29.91,SSE,164,0.0,0.0,98,0.00,,,0.01,,2013-04-29 11:02:00,
2013-04-29 06:12:00,46.0,45.0,29.91,SSE,164,0.0,0.0,98,0.00,,,0.01,,2013-04-29 11:12:00,
2013-04-29 06:21:00,46.0,45.0,29.91,SSE,164,0.0,0.0,97,0.00,,,0.01,,2013-04-29 11:21:00,
2013-04-29 06:32:00,45.0,44.0,29.92,SSE,164,0.0,0.0,98,0.00,,,0.01,,2013-04-29 11:32:00,
2013-04-29 06:42:00,45.0,44.0,29.92,SSE,164,0.0,0.0,98,0.00,,,0.01,,2013-04-29 11:42:00,
2013-04-29 06:52:00,45.0,44.0,29.93,SSE,164,0.0,0.0,98,0.00,,,0.01,,2013-04-29 11:52:00,
2013-04-29 07:01:00,46.0,45.0,29.93,SSE,167,0.0,0.0,98,0.00,,,0.01,,2013-04-29 12:01:00,
2013-04-29 07:12:00,46.0,45.0,29.93,SSE,167,0.0,0.0,98,0.00,,,0.01,,2013-04-29 12:12:00,
2013-04-29 07:22:00,46.0,45.0,29.93,SSE,167,0.0,0.0,98,0.00,,,0.01,,2013-04-29 12:22:00,
2013-04-29 07:31:00,48.0,48.0,29.93,SSE,167,0.0,0.0,99,0.00,,,0.00,,2013-04-29 12:31:00,
2013-04-29 07:42:00,48.0,48.0,29.93,SSE,167,0.0,0.0,99,0.00,,,0.00,,2013-04-29 12:42:00,
2013-04-29 07:52:00,49.0,49.0,29.94,SSE,167,0.0,0.0,99,0.00,,,0.00,,2013-04-29 12:52:00,
2013-04-29 08:01:00,50.0,50.0,29.94,SSE,167,0.0,0.0,99,0.00,,,0.00,,2013-04-29 13:01:00,
2013-04-29 08:11:00,50.0,50.0,29.94,SSE,167,0.0,0.0,99,0.00,,,0.00,,2013-04-29 13:11:00,
2013-04-29 08:21:00,51.0,51.0,29.94,SE,134,0.0,0.0,99,0.00,,,0.00,,2013-04-29 13:21:00,
2013-04-29 08:31:00,52.0,52.0,29.94,South,190,0.0,0.0,99,0.00,,,0.00,,2013-04-29 13:31:00,
2013-04-29 08:42:00,52.0,52.0,29.94,South,190,0.0,0.0,99,0.00,,,0.00,,2013-04-29 13:42:00,
2013-04-29 08:52:00,53.0,52.0,29.94,SSE,152,0.0,0.0,98,0.00,,,0.00,,2013-04-29 13:52:00,
2013-04-29 09:02:00,55.0,53.0,29.93,South,190,0.0,0.0,94,0.00,,,0.00,,2013-04-29 14:02:00,
2013-04-29 09:11:00,55.0,53.0,29.93,South,190,0.0,0.0,94,0.00,,,0.00,,2013-04-29 14:11:00,
2013-04-29 09:21:00,57.0,53.0,29.93,South,187,0.0,0.0,88,0.00,,,0.00,,2013-04-29 14:21:00,
2013-04-29 09:32:00,59.0,55.0,29.93,South,184,0.0,0.0,86,0.00,,,0.00,,2013-04-29 14:32:00,
2013-04-29 09:42:00,59.0,55.0,29.93,South,184,0.0,0.0,86,0.00,,,0.00,,2013-04-29 14:42:00,
2013-04-29 09:52:00,59.0,54.0,29.93,SSW,194,0.0,0.0,83,0.00,,,0.00,,2013-04-29 14:52:00,
2013-04-29 10:01:00,60.0,54.0,29.92,SSW,196,0.0,0.0,80,0.00,,,0.00,,2013-04-29 15:01:00,
2013-04-29 10:12:00,60.0,54.0,29.92,SSW,196,0.0,0.0,80,0.00,,,0.00,,2013-04-29 15:12:00,
2013-04-29 10:21:00,62.0,55.0,29.92,SSW,211,0.0,0.0,79,0.00,,,0.00,,2013-04-29 15:21:00,
2013-04-29 10:33:00,63.0,56.0,29.92,South,181,0.0,0.0,77,0.00,,,0.00,,2013-04-29 15:33:00,
2013-04-29 10:42:00,63.0,56.0,29.92,South,181,0.0,0.0,77,0.00,,,0.00,,2013-04-29 15:42:00,
2013-04-29 10:53:00,64.0,56.0,29.91,ESE,117,0.0,0.0,75,0.00,,,0.00,,2013-04-29 15:53:00,
2013-04-29 11:02:00,65.0,57.0,29.92,SE,131,0.0,0.0,75,0.00,,,0.00,,2013-04-29 16:02:00,
2013-04-29 11:12:00,65.0,57.0,29.92,SE,131,0.0,0.0,75,0.00,,,0.00,,2013-04-29 16:12:00,
2013-04-29 11:23:00,66.0,57.0,29.92,South,182,0.0,0.0,73,0.00,,,0.00,,2013-04-29 16:23:00,
2013-04-29 11:33:00,67.0,57.0,29.91,SE,134,0.0,0.0,70,0.00,,,0.00,,2013-04-29 16:33:00,
2013-04-29 11:42:00,67.0,57.0,29.91,SE,134,0.0,0.0,70,0.00,,,0.00,,2013-04-29 16:42:00,
2013-04-29 11:52:00,68.0,58.0,29.91,SE,132,0.0,0.0,70,0.00,,,0.00,,2013-04-29 16:52:00,
2013-04-29 12:02:00,69.0,58.0,29.91,South,175,0.0,0.0,69,0.00,,,0.00,,2013-04-29 17:02:00,
2013-04-29 12:12:00,69.0,58.0,29.91,South,175,0.0,0.0,69,0.00,,,0.00,,2013-04-29 17:12:00,
2013-04-29 12:22:00,70.0,59.0,29.90,SE,144,0.0,0.0,69,0.00,,,0.00,,2013-04-29 17:22:00,
2013-04-29 12:32:00,71.0,59.0,29.90,SSE,156,0.0,0.0,66,0.00,,,0.00,,2013-04-29 17:32:00,
2013-04-29 12:42:00,71.0,59.0,29.90,SSE,156,0.0,0.0,66,0.00,,,0.00,,2013-04-29 17:42:00,
2013-04-29 12:52:00,72.0,59.0,29.89,SSE,153,0.0,0.0,63,0.00,,,0.00,,2013-04-29 17:52:00,
2013-04-29 13:01:00,73.0,60.0,29.88,SSW,199,0.0,0.0,63,0.00,,,0.00,,2013-04-29 18:01:00,
2013-04-29 13:13:00,73.0,60.0,29.88,SSW,199,0.0,0.0,63,0.00,,,0.00,,2013-04-29 18:13:00,
2013-04-29 13:22:00,74.0,59.0,29.88,South,183,0.0,0.0,60,0.00,,,0.00,,2013-04-29 18:22:00,
2013-04-29 13:32:00,74.0,59.0,29.87,SSE,165,0.0,0.0,60,0.00,,,0.00,,2013-04-29 18:32:00,
2013-04-29 13:42:00,74.0,59.0,29.87,SSE,165,0.0,0.0,60,0.00,,,0.00,,2013-04-29 18:42:00,
2013-04-29 13:52:00,74.0,59.0,29.86,South,169,0.0,0.0,60,0.00,,,0.00,,2013-04-29 18:52:00,
2013-04-29 14:01:00,75.0,61.0,29.86,SSE,163,0.0,0.0,62,0.00,,,0.00,,2013-04-29 19:01:00,
2013-04-29 14:11:00,75.0,61.0,29.86,SSE,163,0.0,0.0,62,0.00,,,0.00,,2013-04-29 19:11:00,
2013-04-29 14:21:00,76.0,60.0,29.85,SE,125,0.0,0.0,57,0.00,,,0.00,,2013-04-29 19:21:00,
2013-04-29 14:31:00,77.0,61.0,29.84,SSW,206,0.0,0.0,58,0.00,,,0.00,,2013-04-29 19:31:00,
2013-04-29 14:41:00,77.0,61.0,29.84,SSW,206,0.0,0.0,58,0.00,,,0.00,,2013-04-29 19:41:00,
2013-04-29 14:52:00,77.0,60.0,29.83,SSW,194,0.0,0.0,56,0.00,,,0.00,,2013-04-29 19:52:00,
2013-04-29 15:02:00,77.0,60.0,29.83,SE,135,0.0,0.0,56,0.00,,,0.00,,2013-04-29 20:02:00,
2013-04-29 15:11:00,77.0,60.0,29.83,SE,135,0.0,0.0,56,0.00,,,0.00,,2013-04-29 20:11:00,
2013-04-29 15:21:00,77.0,60.0,29.82,SSE,154,0.0,0.0,55,0.00,,,0.00,,2013-04-29 20:21:00,
2013-04-29 15:32:00,78.0,59.0,29.81,SSW,209,0.0,0.0,53,0.00,,,0.00,,2013-04-29 20:32:00,
2013-04-29 15:42:00,78.0,59.0,29.81,SSW,209,0.0,0.0,53,0.00,,,0.00,,2013-04-29 20:42:00,
2013-04-29 15:52:00,78.0,58.0,29.80,SSE,159,0.0,0.0,51,0.00,,,0.00,,2013-04-29 20:52:00,
2013-04-29 16:01:00,79.0,60.0,29.80,SE,138,0.0,0.0,53,0.00,,,0.00,,2013-04-29 21:01:00,
2013-04-29 16:11:00,79.0,60.0,29.80,SE,138,0.0,0.0,53,0.00,,,0.00,,2013-04-29 21:11:00,
2013-04-29 16:21:00,79.0,60.0,29.79,SE,146,0.0,0.0,52,0.00,,,0.00,,2013-04-29 21:21:00,
2013-04-29 16:33:00,79.0,60.0,29.79,South,184,0.0,0.0,52,0.00,,,0.00,,2013-04-29 21:33:00,
2013-04-29 16:42:00,79.0,60.0,29.79,South,184,0.0,0.0,52,0.00,,,0.00,,2013-04-29 21:42:00,
2013-04-29 16:53:00,79.0,61.0,29.79,SE,129,0.0,0.0,54,0.00,,,0.00,,2013-04-29 21:53:00,
2013-04-29 17:02:00,79.0,61.0,29.78,SSE,157,0.0,0.0,54,0.00,,,0.00,,2013-04-29 22:02:00,
2013-04-29 17:13:00,79.0,61.0,29.78,SSE,157,0.0,0.0,54,0.00,,,0.00,,2013-04-29 22:13:00,
2013-04-29 17:23:00,78.0,61.0,29.78,South,175,0.0,0.0,55,0.00,,,0.00,,2013-04-29 22:23:00,
2013-04-29 17:32:00,78.0,61.0,29.78,South,175,0.0,0.0,55,0.00,,,0.00,,2013-04-29 22:32:00,
2013-04-29 17:42:00,78.0,61.0,29.78,South,175,0.0,0.0,55,0.00,,,0.00,,2013-04-29 22:42:00,
2013-04-29 17:52:00,77.0,60.0,29.78,SSE,163,0.0,0.0,56,0.00,,,0.00,,2013-04-29 22:52:00,
2013-04-29 18:02:00,77.0,61.0,29.78,SSE,161,0.0,0.0,57,0.00,,,0.00,,2013-04-29 23:02:00,
2013-04-29 18:11:00,77.0,61.0,29.78,SSE,161,0.0,0.0,57,0.00,,,0.00,,2013-04-29 23:11:00,
2013-04-29 18:22:00,77.0,61.0,29.78,SSE,166,0.0,0.0,57,0.00,,,0.00,,2013-04-29 23:22:00,
2013-04-29 18:32:00,76.0,61.0,29.78,ESE,123,0.0,0.0,59,0.00,,,0.00,,2013-04-29 23:32:00,
2013-04-29 18:42:00,76.0,61.0,29.78,ESE,123,0.0,0.0,59,0.00,,,0.00,,2013-04-29 23:42:00,
2013-04-29 18:52:00,75.0,61.0,29.78,SSE,154,0.0,0.0,61,0.00,,,0.00,,2013-04-29 23:52:00,
2013-04-29 19:01:00,75.0,61.0,29.78,SSE,153,0.0,0.0,61,0.00,,,0.00,,2013-04-30 00:01:00,
2013-04-29 19:11:00,75.0,61.0,29.78,SSE,153,0.0,0.0,61,0.00,,,0.00,,2013-04-30 00:11:00,
2013-04-29 19:21:00,74.0,61.0,29.78,SSE,151,0.0,0.0,63,0.00,,,0.00,,2013-04-30 00:21:00,
2013-04-29 19:32:00,73.0,61.0,29.78,SSE,158,0.0,0.0,65,0.00,,,0.00,,2013-04-30 00:32:00,
2013-04-29 19:41:00,73.0,61.0,29.78,SSE,158,0.0,0.0,65,0.00,,,0.00,,2013-04-30 00:41:00,
2013-04-29 19:52:00,72.0,60.0,29.78,South,175,0.0,0.0,67,0.00,,,0.00,,2013-04-30 00:52:00,
2013-04-29 20:02:00,71.0,60.0,29.78,SE,127,0.0,0.0,69,0.00,,,0.00,,2013-04-30 01:02:00,
2013-04-29 20:11:00,71.0,60.0,29.78,SE,127,0.0,0.0,69,0.00,,,0.00,,2013-04-30 01:11:00,
2013-04-29 20:21:00,71.0,61.0,29.78,SSE,152,0.0,0.0,71,0.00,,,0.00,,2013-04-30 01:21:00,
2013-04-29 20:32:00,70.0,61.0,29.79,SE,142,0.0,0.0,72,0.00,,,0.00,,2013-04-30 01:32:00,
2013-04-29 20:41:00,70.0,61.0,29.79,SE,142,0.0,0.0,72,0.00,,,0.00,,2013-04-30 01:41:00,
2013-04-29 20:52:00,70.0,61.0,29.79,South,182,0.0,0.0,74,0.00,,,0.00,,2013-04-30 01:52:00,
2013-04-29 21:01:00,69.0,61.0,29.80,SSE,167,0.0,0.0,75,0.00,,,0.00,,2013-04-30 02:01:00,
2013-04-29 21:11:00,69.0,61.0,29.80,SSE,167,0.0,0.0,75,0.00,,,0.00,,2013-04-30 02:11:00,
2013-04-29 21:21:00,69.0,61.0,29.80,SE,143,0.0,0.0,76,0.00,,,0.00,,2013-04-30 02:21:00,
2013-04-29 21:31:00,68.0,61.0,29.80,SSE,161,0.0,0.0,77,0.00,,,0.00,,2013-04-30 02:31:00,
2013-04-29 21:41:00,68.0,61.0,29.80,SSE,161,0.0,0.0,77,0.00,,,0.00,,2013-04-30 02:41:00,
2013-04-29 21:51:00,68.0,61.0,29.80,SSE,164,0.0,0.0,77,0.00,,,0.00,,2013-04-30 02:51:00,
2013-04-29 22:01:00,67.0,60.0,29.80,South,176,0.0,0.0,78,0.00,,,0.00,,2013-04-30 03:01:00,
2013-04-29 22:11:00,67.0,60.0,29.80,South,176,0.0,0.0,78,0.00,,,0.00,,2013-04-30 03:11:00,
2013-04-29 22:21:00,67.0,60.0,29.80,South,173,0.0,0.0,78,0.00,,,0.00,,2013-04-30 03:21:00,
2013-04-29 22:33:00,67.0,60.0,29.80,SSE,155,0.0,0.0,78,0.00,,,0.00,,2013-04-30 03:33:00,
2013-04-29 22:42:00,67.0,60.0,29.80,SSE,155,0.0,0.0,78,0.00,,,0.00,,2013-04-30 03:42:00,
2013-04-29 22:52:00,67.0,60.0,29.80,SSE,162,0.0,0.0,79,0.00,,,0.00,,2013-04-30 03:52:00,
2013-04-29 23:02:00,67.0,61.0,29.80,SE,139,0.0,0.0,80,0.00,,,0.00,,2013-04-30 04:02:00,
2013-04-29 23:12:00,67.0,61.0,29.80,SE,139,0.0,0.0,80,0.00,,,0.00,,2013-04-30 04:12:00,
2013-04-29 23:22:00,66.0,60.0,29.80,SSW,196,0.0,0.0,82,0.00,,,0.00,,2013-04-30 04:22:00,
2013-04-29 23:32:00,66.0,61.0,29.80,South,184,0.0,0.0,83,0.00,,,0.00,,2013-04-30 04:32:00,
2013-04-29 23:42:00,66.0,61.0,29.80,South,184,0.0,0.0,83,0.00,,,0.00,,2013-04-30 04:42:00,
2013-04-29 23:52:00,65.0,60.0,29.80,South,185,0.0,0.0,83,0.00,,,0.00,,2013-04-30 04:52:00,